Regional Weather Roundup
Issued by NWS Glasgow, MT

Home | Current Version | Previous Version | Text Only | Print | Product List | Glossary On
Versions: 1 2 3 4 5 6 7 8 9 10 11 12 13 14 15 16 17 18 19 20 21 22 23 24 25 26 27 28 29 30 31 32 33 34 35 36 37 38 39 40 41 42 43 44 45 46 47 48 49 50
000
ASUS45 KGGW 250215
RWRGGW
HOURLY WEATHER ROUNDUP FOR NORTHEAST MONTANA
NATIONAL WEATHER SERVICE GLASGOW MONTANA
700 PM MST WED DEC 24 2014

NOTE: "FAIR" INDICATES FEW OR NO CLOUDS BELOW 12,000 FEET WITH NO
SIGNIFICANT WEATHER AND/OR OBSTRUCTIONS TO VISISBILITY.

NORTHEAST MONTANA


CITY           SKY/WX    TMP DP  RH WIND       PRES   REMARKS
GLASGOW        CLOUDY    31  27  85 NW6       29.52R
PLENTYWOOD       N/A     25  23  92 W6          N/A
WOLF POINT     PTCLDY    30  25  81 CALM      29.52R
JORDAN           N/A     33  32  96 CALM      29.51R
WINNETT          N/A     33  32  96 NE6         N/A
SIDNEY         MOCLDY    30  25  80 CALM      29.52S
GLENDIVE       CLOUDY    34  30  86 N6        29.51R
MALTA            N/A     34  30  86 W3          N/A
SCOBEY           N/A     16   9  74 CALM      29.51S

FORT PECK REPORTS


CITY           SKY/WX    TMP DP  RH WIND       PRES   REMARKS
FORT PECK        N/A     34  30  86 NW8         N/A
THE PINES        N/A     33  29  85 NW3         N/A

SOUTHEAST MONTANA


CITY           SKY/WX    TMP DP  RH WIND       PRES   REMARKS
BILLINGS       CLOUDY    37  26  64 NE16      29.44R
MILES CITY     LGT SNOW  32  31  96 N7        29.49S FOG
BAKER          LGT SNOW  32  30  92 W5        29.48S FOG
LIVINGSTON     CLOUDY    35  25  66 W25G35    29.39F

CENTRAL MONTANA


CITY           SKY/WX    TMP DP  RH WIND       PRES   REMARKS
HAVRE          MIX PCPN  33  32  96 NW3       29.58R
LEWISTOWN      LGT SNOW  32  29  88 E7        29.47R FOG
GREAT FALLS    LGT SNOW  31  30  96 N13       29.52R VSB 3/4
CUT BANK       LGT SNOW  29  27  92 N17       29.59R VSB 1
HELENA         LGT SNOW  32  31  96 W7        29.47R VSB 3/4
BUTTE          LGT SNOW  29  28  96 N6        29.41S FOG
BOZEMAN        LGT SNOW  32  31  96 N6        29.43F FOG

WESTERN MONTANA


CITY           SKY/WX    TMP DP  RH WIND       PRES   REMARKS
MISSOULA       LGT RAIN  35  32  88 NW10      29.54R
KALISPELL      NOT AVBL

NORTH DAKOTA


CITY           SKY/WX    TMP DP  RH WIND       PRES   REMARKS
WILLISTON      PTCLDY    27  22  81 NE3       29.49S
DICKINSON      CLOUDY    34  31  88 NW7       29.44S
MINOT          CLEAR     29  23  78 W15       29.43R
BISMARCK       CLOUDY    29  27  92 CALM      29.47R

SOUTHERN SASKATCHEWAN


CITY           SKY/WX    TMP DP  RH WIND       PRES   REMARKS
REGINA         CLOUDY    25  23  93 W12       29.45S
ESTEVAN        CLEAR     23  19  86 W13       29.44S
SWIFT CURRENT  CLOUDY    25  21  86 NW13      29.52R



USA.gov is the U.S. government's official web portal to all federal, state and local government web resources and services.